www.pogodaiklimat.ru

Погода и климат >> Архив погоды >> Россия >> Чукотка >> Чаун


ПОГОДА в Чауне

  • Прогноз погоды в Чауне
  • Монитор погоды в Чауне
  • Климат города

АРХИВ ПОГОДЫ в Чауне

Время (UTC), дата Ветер
(напр.,м/с)
 
Видим.   Явления Облачность Т
(С)
Тd
(С)
f
(%)
Тe
(С)
Тes
(С)
Комфортность P
(гПа)
Po
(гПа)
Тmin
(С)
Tmax
(С)
R
(мм)
R24
(мм)
S
(см)
21 10.10 ЮЗ 2
{3}
50 км 6/3 200 м
[St Ac trans]
-5.3 -6.3 93 -10 -10 1013.7 1013.1 -8.1 6
00 11.10 Ю 1
{3}
20 км 9/3 200 м
[St Ac trans]
-3.9 -4.7 94 -6 -6 1014.6 1014.0
03 11.10 ЮЗ 3
{4}
20 км {снег} 10/3 200 м
[St Ac und]
-2.5 -3.4 94 -8 -8 1015.1 1014.5
06 11.10 ЮЗ 4
{6}
20 км {снег} 9/4 200 м
[St Ac trans]
-5.6 -6.7 92 -12 -12 1016.1 1015.5
09 11.10 ЮЗ 2
{6}
20 км 9/4 200 м
[St Ac trans]
-6.1 -7.2 92 -11 -11 1016.7 1016.1 -2.0 0.2
12 11.10 ЮЗ 2
{5}
20 км 8/4 200 м
[St Ac trans]
-4.5 -5.4 93 -9 -9 1017.1 1016.5
15 11.10 Ю 2
{4}
20 км 9/4 200 м
[St Ac trans]
-5.1 -6.1 93 -9 -9 1016.9 1016.3
18 11.10 Ю 3
{4}
20 км 10/4 200 м
[St Ac und]
-5.1 -6.1 93 -11 -11 1016.3 1015.7
21 11.10 В 3
{5}
4000 м слабый снег 10/8 100 м
[Frnb As op]
-6.0 -6.8 94 -12 -12 1015.3 1014.7 -6.2 0.2 6
00 12.10 СВ 1
{4}
20 км {снег} 9/4 200 м
[St Ac trans]
-6.7 -7.9 91 -9 -9 1013.2 1012.6 -7.0
03 12.10 С 3
{5}
20 км 9/4 200 м
[St Ac trans]
-4.2 -5.1 93 -10 -10 1009.6 1009.0
06 12.10 СВ 4
{9}
20 км 9/4 200 м
[St Ac trans]
-4.1 -5.7 89 -10 -10 1005.5 1004.9
09 12.10 СВ 8-10
{12}
20 км позёмок {метель} 9/4 200 м
[St Ac trans]
-1.2 -3.8 82 -9 -9 1000.9 1000.3 -1.2 0.0
12 12.10 В 13-17
{18}
4000 м слабый снег {метель} 10/8 120 м
[Frnb As op]
-0.1 -1.3 92 -9 -9 996.0 995.4
15 12.10 В 13-16
{19}
20 км позёмок {снег, метель} 9/4 200 м
[St Ac trans]
-0.2 -0.7 96 -10 -10 996.6 996.0
18 12.10 В 12-15
{19}
20 км позёмок {снег, метель} 9/4 200 м
[St Ac trans]
-0.5 -1.4 94 -10 -10 992.7 992.1
21 12.10 В 11-15
{15}
20 км позёмок {метель} 8/4 200 м
[St Ac trans Ci fib]
-0.1 -1.0 94 -9 -9 993.8 993.2 -1.2 0.2 9
00 13.10 В 10-15
{15}
20 км позёмок {метель} 8/4 200 м
[St Ac trans Ci fib]
+1.8 -0.4 85 -6 -6 995.8 995.2
03 13.10 В 7
{15}
20 км {метель} 9/9 200 м
[Sc]
+0.7 -0.4 92 -6 -6 989.0 988.4
06 13.10 В 4
{9}
20 км {метель} 8/8 200 м
[St]
-0.8 -1.7 94 -7 -7 983.7 983.1
09 13.10 Ю 2
{5}
20 км 8/8 200 м
[St]
-4.2 -5.1 93 -9 -9 981.9 981.3 +1.8
12 13.10 ЮВ 2
{4}
4000 м дымка 8/8 200 м
[St]
-6.4 -7.2 94 -11 -11 983.3 982.7
15 13.10 штиль 0
{3}
20 км 8/8 200 м
[St]
-4.4 -5.3 93 -6 -6 983.8 983.2
18 13.10 СЗ 3
{3}
20 км дымка 8/8 200 м
[St]
-1.0 -1.9 94 -6 -6 983.8 983.2
21 13.10 С 2
{5}
20 км 8/8 200 м
[Sc]
-0.1 -1.0 94 -4 -4 984.1 983.5 -6.8 8
00 14.10 штиль 0
{3}
4000 м дымка 8/4 200 м
[St Ac trans]
+0.4 -0.2 96 -1 -1 985.1 984.5
03 14.10 ЮЗ 1
{2}
20 км 9/4 200 м
[St Ac trans]
0.0 -0.8 94 -2 -2 986.2 985.6
06 14.10 З 2
{3}
20 км 9/4 200 м
[St Ac trans]
+0.4 -0.5 94 -3 -3 987.2 986.6
09 14.10 З 3
{6}
20 км 9/4 200 м
[St Ac trans]
+0.5 -0.3 94 -4 -4 988.7 988.1 +0.6
12 14.10 ЮВ 5
{6}
20 км 9/4 200 м
[St Ac trans]
-0.8 -1.7 94 -7 -7 991.2 990.6
15 14.10 В 4
{6}
20 км 9/4 200 м
[St Ac trans]
-2.0 -2.9 94 -8 -8 993.2 992.6
18 14.10 Ю 2
{5}
4000 м дымка 9/4 200 м
[St Ac trans]
-2.3 -2.9 96 -6 -6 994.4 993.8
21 14.10 ЮВ 2
{3}
20 км 9/4 200 м
[St Ac trans]
-2.2 -3.1 94 -6 -6 995.8 995.2 -2.5 8
00 15.10 СВ 2
{3}
20 км 9/4 200 м
[St Ac trans]
-1.6 -2.5 94 -6 -5 997.1 996.5 -3.0
03 15.10 В 3
{3}
50 км 4/0
[Ac lent]
-2.1 -3.3 91 -7 -7 998.3 997.7
06 15.10 В 5
{5}
50 км 4/0
[Ac lent]
-4.7 -6.4 88 -12 -12 999.8 999.2
09 15.10 В 3
{5}
50 км 6/0
[Ac lent]
-3.8 -6.4 82 -9 -9 1001.4 1000.8 -0.8
12 15.10 ЮВ 2
{5}
20 км 4/0
[Ac lent]
-5.6 -6.7 92 -10 -10 1002.4 1001.8
15 15.10 В 4
{6}
20 км 3/0
[Ac lent]
-4.1 -5.3 91 -10 -10 1003.4 1002.8
18 15.10 С 4
{7}
20 км 4/0
[Ac lent]
-2.3 -4.2 87 -8 -8 1004.7 1004.1
21 15.10 СВ 2
{6}
50 км 6/0
[Ac lent Ci fib]
-3.6 -4.7 92 -8 -8 1005.8 1005.2 -6.1 8
00 16.10 СВ 2
{3}
50 км 8/3 200 м
[St Ac trans Ci fib]
-1.3 -2.8 90 -5 -5 1006.7 1006.2
03 16.10 СВ 1
{4}
50 км 6/3 200 м
[St Ac trans]
-0.2 -2.3 86 -2 -2 1006.8 1006.2
06 16.10 СВ 11-13
{14}
20 км 8/4 200 м
[St Ac trans]
-0.9 -2.4 90 -10 -10 1009.2 1008.6
09 16.10 В 9-12
{14}
20 км 9/4 200 м
[St Ac trans]
-1.6 -3.5 87 -10 -10 1010.7 1010.1 -0.1
12 16.10 СВ 6
{13}
20 км 9/4 200 м
[St Ac trans]
-2.6 -4.5 87 -10 -10 1011.8 1011.2
15 16.10 СВ 6
{11}
20 км 9/4 200 м
[St Ac trans]
-2.9 -5.2 84 -10 -10 1012.6 1012.0
18 16.10 С 5
{10}
20 км 8/4 200 м
[St Ac trans]
-5.0 -6.7 88 -12 -12 1013.4 1012.8
21 16.10 СВ 3
{7}
50 км 6/3 200 м
[St Ac lent]
-7.3 -9.0 88 -13 -13 1014.1 1013.5 -7.6 8
00 17.10 С 4
{6}
50 км 6/3 200 м
[St Ac lent]
-2.0 -4.1 86 -8 -8 1014.4 1013.8
03 17.10 С 3
{6}
50 км 6/3 200 м
[St Ac lent]
-1.8 -4.2 84 -7 -7 1014.8 1014.2
06 17.10 СВ 3
{4}
20 км 8/3 200 м
[St Ac lent]
-3.4 -4.5 92 -9 -9 1015.3 1014.7
09 17.10 ЮЗ 1
{4}
20 км 9/3 200 м
[St Ac trans]
-3.0 -4.0 93 -5 -5 1016.2 1015.6 -1.8
12 17.10 ЮЗ 1
{2}
20 км 10/3 200 м
[St Ac und]
-2.8 -3.8 93 -5 -5 1016.9 1016.3
15 17.10 З 2
{2}
4000 м слабый снег 10/3 200 м
[Frnb As op]
-3.0 -3.7 95 -7 -7 1017.1 1016.5

 

Местоположение метеостанции Чаун (Чукотка, Россия): широта 68.88 долгота 170.70 высота над уровнем моря 5 м.

В архиве по умолчанию представлена погода в Чауне за последнюю неделю. Архивные данные за месяц целиком и за предыдущие месяцы, начиная с января 2011 года, Вы можете получить, выбрав интересующий диапазон дат из раскрывающегося списка и нажав кнопку "Ввод!".

Внимание! Время в таблицах - всемирное. Для получения местного времени необходимо прибавить поправку, которая в Чауне равна 12 ч.

Смотрите также архив погоды в соседних городах и на ближайших метеорологических станциях:

Погода в 21 км (Чукотка, Россия) (84 км)
Погода в Комсомольской (Чукотка, Россия) (89 км)
Погода в Певеке (Чукотка, Россия) (93 км)
Погода в Майской (Чукотка, Россия) (117 км)
Погода в Валькаркае (Чукотка, Россия) (134 км)
Погода в Паляваам-Глубокой (Чукотка, Россия) (137 км)
Погода на Айон Острове (Чукотка, Россия) (160 км)
Погода в Раучуе (Чукотка, Россия) (180 км)
Погода в Билибино (Чукотка, Россия) (198 км)
Погода в Илирнее (Чукотка, Россия) (215 км)

Пояснения к столбцам:

Ветер - указаны скорость ветра в м/с - средняя за 10 мин, порывы в срок и между сроками (в фигурных скобках) и направление, откуда дует ветер: С - северный, СВ - северо-восточный, В - восточный, ЮВ - юго-восточный, Ю - южный, ЮЗ - юго-западный, З - западный, СЗ - северо-западный.
Видимость - горизонтальная дальность видимости в метрах или километрах. При видимости от 1 до 10 км при отсутствии осадков обычно наблюдается дымка, при ухудшении видимости до 1 км и менее - туман. В сухую погоду видимость может ухудшаться дымом, пылью или мглою.
Явления - указаны атмосферные явления, наблюдавшиеся в срок или в последний час перед сроком; фигурными скобками обозначены явления, наблюдавшиеся между сроками (за 1-3 часа до срока); квадратными скобками обозначены град или гололедные отложения с указанием их диаметра в мм.
Облачность - указаны через наклонную черту общая и нижняя облачность в баллах и высота нижней границы облаков в метрах; квадратными скобками обозначены формы облаков: Ci - перистые, Cs - перисто-слоистые, Cc - перисто-кучевые, Ac - высококучевые, As - высокослоистые, Sc - слоисто-кучевые, Ns - слоисто-дождевые, Cu - кучевые, Cb - кучево-дождевые. Подробнее классификацию облаков см. в Атласе облаков (PDF).
T - Температура воздуха - температура, измеренная на высоте 2 м над землей.
Td - Температура точки росы - температура, при понижении до которой содержащийся в воздухе водяной пар достигнет насыщения.
f - Относительная влажность воздуха - влажноcть воздуха, измеренная на высоте 2 м над землей.
Te - Эффективная температура - температура, которую ощущает одетый по сезону человек в тени. Характеристика душности погоды. При расчете учитывается влияние влажности воздуха и скорости ветра на теплоощущения человека.
Tes - Эффективная температура на солнце - температура, которую ощущает человек, с поправкой на солнечный нагрев. Характеристика знойности погоды. Зависит от высоты солнца над горизонтом, облачности и скорости ветра. Ночью, в пасмурную погоду, а также при ветре 12 м/с и более поправка равна нулю.
P - Атмосферное давление - приведенное к уровню моря атмосферное давление.
Po - Атмосферное давление - измеренное на уровне метеостанции атмосферное давление.
Tmin - Минимальная температура - минимум температуры воздуха на высоте 2 м над землей.
Tmax - Максимальная температура - максимум температуры воздуха на высоте 2 м над землей.
R - Количество осадков - Количество выпавших осадков за период времени, мм. При наведении курсора мыши на число - период времени, за который выпало указанное количество осадков.
R24 - Количество осадков - Количество выпавших осадков за 24 часа, мм.
S - Снежный покров - Высота снежного покрова, см. При наведении курсора мыши на число - состояние снежного покрова и степень покрытия местности в баллах.